TimeMST,TemperatureF,Dew PointF,Humidity,Sea Level PressureIn,VisibilityMPH,Wind Direction,Wind SpeedMPH,Gust SpeedMPH,PrecipitationIn,Events,Conditions,WindDirDegrees,DateUTC
12:53 AM,55.0,24.1,30,29.89,10.0,SSE,6.9,-,N/A,,Clear,160,2014-03-31 07:53:00
1:53 AM,54.0,24.1,31,29.90,10.0,SSE,5.8,-,N/A,,Clear,160,2014-03-31 08:53:00
2:53 AM,52.0,24.1,34,29.90,10.0,SE,8.1,-,N/A,,Clear,140,2014-03-31 09:53:00
3:53 AM,51.1,23.0,33,29.90,10.0,SE,9.2,-,N/A,,Clear,140,2014-03-31 10:53:00
4:53 AM,48.9,21.9,35,29.91,10.0,SSE,6.9,-,N/A,,Clear,160,2014-03-31 11:53:00
5:53 AM,48.9,21.9,35,29.93,10.0,SE,9.2,-,N/A,,Clear,140,2014-03-31 12:53:00
6:53 AM,50.0,21.9,33,29.94,10.0,SE,9.2,-,N/A,,Clear,140,2014-03-31 13:53:00
7:53 AM,55.9,19.9,25,29.96,10.0,SSE,6.9,-,N/A,,Clear,150,2014-03-31 14:53:00
8:53 AM,64.0,18.0,17,29.96,10.0,SSE,6.9,-,N/A,,Clear,160,2014-03-31 15:53:00
9:53 AM,69.1,19.0,15,29.96,10.0,Calm,Calm,-,N/A,,Clear,0,2014-03-31 16:53:00
10:53 AM,73.0,17.1,12,29.95,10.0,Variable,3.5,-,N/A,,Clear,0,2014-03-31 17:53:00
11:53 AM,75.0,14.0,10,29.93,10.0,North,3.5,-,N/A,,Clear,10,2014-03-31 18:53:00
12:53 PM,78.1,16.0,10,29.91,10.0,Variable,4.6,-,N/A,,Clear,0,2014-03-31 19:53:00
1:53 PM,81.0,10.9,7,29.86,10.0,West,10.4,17.3,N/A,,Clear,260,2014-03-31 20:53:00
2:53 PM,82.0,9.0,6,29.84,10.0,SSW,11.5,18.4,N/A,,Clear,200,2014-03-31 21:53:00
3:24 PM,82.0,10.9,7,29.93,10.0,Variable,6.9,-,N/A,,Clear,0,2014-03-31 22:24:00
3:53 PM,82.9,9.0,6,29.82,10.0,West,13.8,21.9,N/A,,Clear,260,2014-03-31 22:53:00
4:53 PM,81.0,6.1,6,29.82,10.0,WSW,12.7,-,N/A,,Clear,240,2014-03-31 23:53:00
5:53 PM,80.1,8.1,6,29.82,10.0,West,8.1,-,N/A,,Clear,270,2014-04-01 00:53:00
6:53 PM,75.9,10.9,8,29.84,10.0,SW,8.1,-,N/A,,Clear,230,2014-04-01 01:53:00
7:53 PM,73.0,10.9,9,29.85,10.0,SW,9.2,-,N/A,,Clear,230,2014-04-01 02:53:00
8:53 PM,69.1,12.9,11,29.86,10.0,West,8.1,-,N/A,,Clear,280,2014-04-01 03:53:00
9:53 PM,66.9,16.0,14,29.86,10.0,Calm,Calm,-,N/A,,Clear,0,2014-04-01 04:53:00
10:53 PM,64.9,14.0,14,29.86,10.0,Calm,Calm,-,N/A,,Clear,0,2014-04-01 05:53:00
11:53 PM,62.1,18.0,18,29.88,10.0,East,3.5,-,N/A,,Clear,90,2014-04-01 06:53:00